This demonstration page uses our WeatherBlox Daily Observations layout. Learn more.

Left ArrowRight Arrow

38.83388, -104.82136

Hourly Observations for March 27, 2018

Temp ( °F °C ) Dew Point ( °F °C ) Humidity (%) Winds ( mph kmh ) Pressure ( in mb ) Visibility ( mi km ) Precip ( " mm )
12:08 am 00:08 Windy with Snow Likely 30 -1 27 -3 86 86 NW 23 37 29.75 1007 1 2 0.00 0.00
12:23 am 00:23 Windy with Snow Likely 30 -1 27 -3 86 86 NW 21 33 29.73 1007 1 1 0.00 0.00
12:38 am 00:38 Windy with Snow Likely 30 -1 25 -4 80 80 NW 22 35 29.74 1007 2 3 0.00 0.00
12:43 am 00:43 Windy with Snow Likely 30 -1 25 -4 80 80 NW 25 41 29.73 1007 4 6 0.00 0.00
12:58 am 00:58 Cloudy with Light Snow 31 -0.4 24 -4.2 76 76 NW 17 28 29.74 1007 4 6 0.00 0.00
1:28 am 01:28 Cloudy with Light Snow 32 0 25 -4 75 75 NW 18 30 29.74 1007 5 8 0.00 0.00
1:58 am 01:58 Cloudy with Light Snow 28 -2.2 27 -2.7 96 96 N 12 19 29.75 1008 1 1 0.00 0.00
2:03 am 02:03 Cloudy with Light Snow 28 -2 27 -3 93 93 N 17 28 29.75 1008 1 1 0.00 0.00
2:18 am 02:18 Cloudy with Light Snow 28 -2 27 -3 93 93 NNW 14 22 29.75 1007 7 11 0.00 0.00
2:48 am 02:48 Cloudy with Light Snow 28 -2 27 -3 93 93 NNW 18 30 29.75 1007 1 2 0.00 0.00
2:58 am 02:58 Cloudy with Light Snow 28 -2.3 26 -3.4 92 92 NW 16 26 29.75 1007 7 11 0.00 0.00
3:13 am 03:13 Cloudy with Light Snow 28 -2 27 -3 93 93 NNW 16 26 29.76 1008 1 2 0.00 0.00
3:28 am 03:28 Cloudy with Snow 27 -3 27 -3 100 100 NNW 14 22 29.76 1008 5 8 0.00 0.00
3:33 am 03:33 Cloudy with Snow 27 -3 27 -3 100 100 NNW 13 20 29.76 1008 1 1 0.00 0.00
3:48 am 03:48 Cloudy with Snow 28 -2 27 -3 93 93 NNW 14 22 29.74 1007 1 2 0.00 0.00
3:58 am 03:58 Cloudy with Light Snow 28 -2.3 25 -3.9 89 89 NW 16 26 29.74 1007 5 8 0.00 0.00
4:03 am 04:03 Cloudy with Light Snow 28 -2 25 -4 86 86 NW 13 20 29.75 1008 2 3 0.00 0.00
4:18 am 04:18 Cloudy with Light Snow 28 -2 25 -4 86 86 NW 15 24 29.77 1008 3 5 0.00 0.00
4:58 am 04:58 Cloudy with Light Snow 28 -2.4 24 -4.3 87 87 NNW 14 22 29.77 1008 1 2 0.01 0.25
5:16 am 05:16 Cloudy with Light Snow 27 -3 25 -4 93 93 N 15 24 29.79 1009 5 8 0.00 0.00
5:26 am 05:26 Cloudy with Light Snow 27 -3 25 -4 93 93 N 14 22 29.79 1009 3 5 0.00 0.00
5:58 am 05:58 Mostly Cloudy with Light Snow 27 -2.9 24 -4.2 91 91 N 12 19 29.82 1010 10 16 0.00 0.00
6:24 am 06:24 Mostly Cloudy 27 -3 25 -4 93 93 NNW 7 11 29.85 1011 10 16 0.00 0.00
6:51 am 06:51 Mostly Cloudy with Light Snow Showers 27 -3 25 -4 93 93 NNW 5 7 29.85 1011 10 16 0.00 0.00
6:58 am 06:58 Mostly Cloudy with Light Snow Showers 27 -2.8 25 -3.9 92 92 NNW 6 9 29.85 1011 10 16 0.00 0.00
7:28 am 07:28 Mostly Cloudy with Light Snow Showers 27 -3 25 -4 93 93 NW 6 9 29.87 1011 10 16 0.00 0.00
7:58 am 07:58 Mostly Cloudy with Light Snow Showers 28 -2.1 25 -3.8 88 88 NW 7 11 29.88 1012 7 11 0.00 0.00
8:13 am 08:13 Cloudy with Light Snow Showers 28 -2 23 -5 80 80 NNW 5 7 29.91 1013 7 11 0.00 0.00
8:53 am 08:53 Cloudy with Light Snow 28 -2 25 -4 86 86 NW 3 6 29.91 1013 5 8 0.00 0.00
8:58 am 08:58 Cloudy with Light Snow 28 -2 24 -4.6 83 83 Calm 29.91 1013 7 11 0.00 0.00
9:48 am 09:48 Cloudy with Light Snow 28 -2 25 -4 86 86 Calm 29.93 1014 3 5 0.00 0.00
9:58 am 09:58 Cloudy with Light Snow 29 -1.6 26 -3.1 90 90 Calm 29.93 1014 3 5 0.02 0.51
10:58 am 10:58 Cloudy with Light Rain/Snow 29 -1.9 26 -3.6 88 88 SSE 5 7 29.94 1014 3 5 0.01 0.25
11:08 am 11:08 Cloudy with Light Snow 28 -2 27 -3 93 93 SE 3 6 29.94 1014 3 5 0.00 0.00
11:18 am 11:18 Cloudy with Light Snow 28 -2 27 -3 93 93 SE 5 7 29.96 1015 3 4 0.00 0.00
11:58 am 11:58 Cloudy with Light Snow 29 -1.6 26 -3.1 90 90 Calm 29.94 1014 10 16 0.00 0.00
12:18 pm 12:18 Cloudy with Light Rain/Snow 30 -1 27 -3 86 86 ESE 3 6 29.91 1013 2 2 0.00 0.00
12:38 pm 12:38 Cloudy with Light Snow 28 -2 28 -2 100 100 SE 5 7 29.93 1014 2 3 0.00 0.00
12:48 pm 12:48 Cloudy with Light Snow 30 -1 28 -2 93 93 Calm 29.91 1013 5 8 0.00 0.00
12:58 pm 12:58 Cloudy with Light Snow 29 -1.4 29 -1.8 97 97 ESE 5 7 29.90 1013 2 4 0.01 0.25
1:43 pm 13:43 Mostly Cloudy with Light Rain/Snow 32 0 32 0 100 100 ESE 8 13 29.87 1012 10 16 0.00 0.00
1:51 pm 13:51 Mostly Cloudy 34 1 32 0 93 93 SE 8 13 29.87 1012 10 16 0.00 0.00
1:58 pm 13:58 Mostly Cloudy 34 1.2 33 0.6 96 96 ESE 8 13 29.86 1011 10 16 0.00 0.00
2:13 pm 14:13 Mostly Cloudy 34 1 30 -1 87 87 SE 10 17 29.85 1011 10 16 0.00 0.00
2:18 pm 14:18 Mostly Cloudy 34 1 32 0 93 93 SSE 12 19 29.84 1011 10 16 0.00 0.00
2:58 pm 14:58 Mostly Cloudy 36 2 27 -2.9 70 70 SSE 17 28 29.80 1009 10 16 0.00 0.00
3:08 pm 15:08 Mostly Cloudy 36 2 27 -3 70 70 SSE 15 24 29.79 1009 10 16 0.00 0.00
3:58 pm 15:58 Partly Cloudy 36 2.4 26 -3.1 67 67 SSE 14 22 29.77 1008 10 16 0.00 0.00
4:58 pm 16:58 Sunny 37 2.6 25 -4 62 62 SSE 14 22 29.75 1007 10 16 0.00 0.00
5:58 pm 17:58 Partly Cloudy 36 2.4 25 -3.7 64 64 S 8 13 29.74 1007 10 16 0.00 0.00
6:58 pm 18:58 Mostly Sunny 36 2.3 28 -2.4 71 71 WNW 5 7 29.73 1007 10 16 0.00 0.00
7:58 pm 19:58 Clear 34 1.2 27 -3 74 74 Calm 29.73 1007 10 16 0.00 0.00
8:58 pm 20:58 Clear 33 0.8 27 -3 76 76 Calm 29.73 1007 10 16 0.00 0.00
9:58 pm 21:58 Clear 32 0.1 27 -3 80 80 Calm 29.73 1007 10 16 0.00 0.00
10:58 pm 22:58 Clear 31 -0.3 26 -3.2 81 81 NNW 3 6 29.71 1006 10 16 0.00 0.00
11:58 pm 23:58 Clear 31 -0.5 26 -3.4 81 81 Calm 29.67 1005 10 16 0.00 0.00

Powered by AerisWeather